Weather History for Sallisaw, OK

Change the Weather History Date:

Saturday, January 19, 2013

  Actual Average Record
Temperature  
Mean Temperature 49 °F -  
Max Temperature 66 °F 48 °F 76 °F (1951)
Min Temperature 32 °F 28 °F -5 °F (1984)
Degree Days  
Heating Degree Days 16    
Moisture  
Dew Point 32 °F    
Average Humidity 62    
Maximum Humidity 93    
Minimum Humidity 30    
Precipitation  
Precipitation 0.00 in - - ()
Sea Level Pressure  
Sea Level Pressure 30.19 in    
Wind  
Wind Speed 5 mph (SSE)    
Max Wind Speed 14 mph    
Max Gust Speed 18 mph    
Visibility 10 miles    
Events      
Averages and records for this station are not official NWS values.
T = Trace of Precipitation, MM = Missing Value Source: NWS Daily Summary

Daily Weather History Graph

Daily Weather History Graph

Search for Another Location

Airport:

Trip Planner

Search our weather history database for the weather conditions in past years. The results will help you decide how hot, cold, wet, or windy it might be!

Date:

Astronomy

Jan. 19, 2013 Rise Set
Actual Time 7:26 AM CST 5:34 PM CST
Civil Twilight 6:58 AM CST 6:01 PM CST
Nautical Twilight 6:27 AM CST 6:32 PM CST
Astronomical Twilight 5:57 AM CST 7:03 PM CST
Moon 11:58 AM CST (1/19) 1:04 AM CST (1/19)
Length of Visible Light 11h 02m
Length of Day
10h 07m
First Quarter, 57% of the Moon is Illuminated
Jan 19
First Quarter
Jan 26
Full
Feb 3
Last Quarter
Feb 10
New
Feb 17
First Quarter

Hourly Weather History & Observations

Time (CST) Temp. Windchill Dew Point Humidity Pressure Visibility Wind Dir Wind Speed Gust Speed Precip Events Conditions
12:15 AM 33.8 °F 29.6 °F 28.4 °F 81% 30.26 in 10.0 mi ENE 4.6 mph - N/A   Clear
12:35 AM 33.8 °F 29.6 °F 28.4 °F 81% 30.26 in 10.0 mi ENE 4.6 mph - N/A   Clear
1:15 AM 33.8 °F 29.6 °F 28.4 °F 81% 30.25 in 10.0 mi ENE 4.6 mph - N/A   Clear
1:35 AM 32.0 °F 27.5 °F 28.4 °F 87% 30.26 in 10.0 mi ENE 4.6 mph - N/A   Clear
1:55 AM 32.0 °F 27.5 °F 28.4 °F 87% 30.25 in 10.0 mi ENE 4.6 mph - N/A   Clear
2:15 AM 32.0 °F 27.5 °F 28.4 °F 87% 30.25 in 10.0 mi East 4.6 mph - N/A   Clear
2:35 AM 32.0 °F 27.5 °F 28.4 °F 87% 30.25 in 10.0 mi ENE 4.6 mph - N/A   Clear
2:55 AM 32.0 °F 25.6 °F 26.6 °F 80% 30.24 in 10.0 mi East 6.9 mph - N/A   Clear
3:15 AM 32.0 °F 25.6 °F 26.6 °F 80% 30.24 in 10.0 mi East 6.9 mph - N/A   Clear
3:35 AM 35.6 °F - 28.4 °F 75% 30.23 in 10.0 mi Calm Calm - N/A   Clear
3:55 AM 33.8 °F 29.6 °F 28.4 °F 81% 30.22 in 10.0 mi East 4.6 mph - N/A   Clear
4:15 AM 35.6 °F 29.2 °F 28.4 °F 75% 30.22 in 10.0 mi East 8.1 mph - N/A   Clear
4:35 AM 33.8 °F 29.6 °F 28.4 °F 81% 30.22 in 10.0 mi ENE 4.6 mph - N/A   Clear
5:15 AM 35.6 °F 30.7 °F 28.4 °F 75% 30.21 in 10.0 mi ENE 5.8 mph - N/A   Clear
5:35 AM 35.6 °F 29.9 °F 28.4 °F 75% 30.21 in 10.0 mi ENE 6.9 mph - N/A   Clear
5:55 AM 35.6 °F 30.7 °F 28.4 °F 75% 30.21 in 10.0 mi ENE 5.8 mph - N/A   Clear
7:15 AM 33.8 °F 27.7 °F 28.4 °F 81% 30.21 in 10.0 mi NE 6.9 mph - N/A   Clear
7:35 AM 35.6 °F 29.9 °F 28.4 °F 75% 30.21 in 10.0 mi ENE 6.9 mph - N/A   Clear
7:55 AM 35.6 °F 29.9 °F 28.4 °F 75% 30.21 in 10.0 mi ENE 6.9 mph - N/A   Clear
9:55 AM 46.4 °F 44.3 °F 32.0 °F 57% 30.24 in 10.0 mi ENE 4.6 mph - N/A   Clear
10:15 AM 51.8 °F - 33.8 °F 50% 30.24 in 10.0 mi ESE 4.6 mph - N/A   Clear
10:35 AM 51.8 °F - 33.8 °F 50% 30.24 in 10.0 mi Calm Calm - N/A   Clear
11:15 AM 55.4 °F - 33.8 °F 44% 30.22 in 10.0 mi SW 5.8 mph - N/A   Clear
11:35 AM 59.0 °F - 33.8 °F 39% 30.21 in 10.0 mi SSW 8.1 mph - N/A   Clear
11:55 AM 60.8 °F - 33.8 °F 36% 30.20 in 10.0 mi SW 9.2 mph - N/A   Clear
12:15 PM 60.8 °F - 33.8 °F 36% 30.18 in 10.0 mi SW 12.7 mph - N/A   Clear
12:55 PM 62.6 °F - 33.8 °F 34% 30.16 in 10.0 mi SSW 13.8 mph 18.4 mph N/A   Clear
1:15 PM 64.4 °F - 33.8 °F 32% 30.15 in 10.0 mi SSW 11.5 mph 16.1 mph N/A   Clear
1:55 PM 64.4 °F - 33.8 °F 32% 30.13 in 10.0 mi SW 10.4 mph - N/A   Clear
2:15 PM 64.4 °F - 33.8 °F 32% 30.13 in 10.0 mi WSW 8.1 mph - N/A   Clear
2:35 PM 64.4 °F - 33.8 °F 32% 30.12 in 10.0 mi SSW 10.4 mph - N/A   Clear
2:55 PM 66.2 °F - 33.8 °F 30% 30.12 in 10.0 mi South 9.2 mph - N/A   Clear
3:15 PM 66.2 °F - 33.8 °F 30% 30.11 in 10.0 mi SSW 10.4 mph - N/A   Clear
3:35 PM 64.4 °F - 33.8 °F 32% 30.11 in 10.0 mi SW 10.4 mph - N/A   Clear
3:55 PM 64.4 °F - 33.8 °F 32% 30.11 in 10.0 mi SW 6.9 mph - N/A   Clear
4:15 PM 64.4 °F - 33.8 °F 32% 30.12 in 10.0 mi SSW 8.1 mph - N/A   Clear
4:35 PM 64.4 °F - 33.8 °F 32% 30.12 in 10.0 mi SSW 8.1 mph - N/A   Clear
4:55 PM 62.6 °F - 33.8 °F 34% 30.12 in 10.0 mi SW 8.1 mph - N/A   Clear
5:15 PM 60.8 °F - 35.6 °F 39% 30.13 in 10.0 mi SSW 5.8 mph - N/A   Clear
5:55 PM 53.6 °F - 35.6 °F 51% 30.13 in 10.0 mi SW 4.6 mph - N/A   Clear
6:15 PM 53.6 °F - 35.6 °F 51% 30.14 in 10.0 mi SSW 3.5 mph - N/A   Clear
6:35 PM 53.6 °F - 35.6 °F 51% 30.15 in 10.0 mi South 3.5 mph - N/A   Clear
6:55 PM 53.6 °F - 35.6 °F 51% 30.15 in 10.0 mi SW 4.6 mph - N/A   Clear
7:15 PM 51.8 °F - 35.6 °F 54% 30.17 in 10.0 mi SW 3.5 mph - N/A   Clear
7:35 PM 50.0 °F - 35.6 °F 58% 30.17 in 10.0 mi Calm Calm - N/A   Clear
7:55 PM 50.0 °F - 35.6 °F 58% 30.18 in 10.0 mi Calm Calm - N/A   Clear
8:15 PM 50.0 °F - 35.6 °F 58% 30.19 in 10.0 mi WNW 3.5 mph - N/A   Clear
8:35 PM 44.6 °F 43.1 °F 35.6 °F 71% 30.20 in 10.0 mi NW 3.5 mph - N/A   Clear
8:55 PM 44.6 °F - 35.6 °F 71% 30.20 in 10.0 mi Calm Calm - N/A   Clear
9:15 PM 42.8 °F - 35.6 °F 76% 30.20 in 10.0 mi Calm Calm - N/A   Clear
9:35 PM 41.0 °F - 33.8 °F 76% 30.20 in 10.0 mi Calm Calm - N/A   Clear
9:55 PM 41.0 °F - 33.8 °F 76% 30.21 in 10.0 mi Calm Calm - N/A   Clear
10:15 PM 39.2 °F - 33.8 °F 81% 30.21 in 10.0 mi Calm Calm - N/A   Clear
10:35 PM 37.4 °F - 33.8 °F 87% 30.21 in 10.0 mi Calm Calm - N/A   Clear
10:55 PM 37.4 °F - 33.8 °F 87% 30.21 in 10.0 mi Calm Calm - N/A   Clear
11:15 PM 37.4 °F 34.9 °F 33.8 °F 87% 30.22 in 10.0 mi ENE 3.5 mph - N/A   Clear
11:35 PM 35.6 °F - 32.0 °F 87% 30.22 in 10.0 mi Calm Calm - N/A   Clear
11:55 PM 35.6 °F - 33.8 °F 93% 30.22 in 10.0 mi Calm Calm - N/A   Clear